TimeAKDT,TemperatureF,Dew PointF,Humidity,Sea Level PressureIn,VisibilityMPH,Wind Direction,Wind SpeedMPH,Gust SpeedMPH,PrecipitationIn,Events,Conditions,WindDirDegrees,DateUTC
12:06 AM,42.8,37.4,81,29.18,10.0,West,23.0,33.4,0.00,Rain,Light Rain,270,2013-10-08 08:06:00
12:53 AM,43.0,37.9,82,29.16,10.0,West,21.9,29.9,0.00,,Overcast,260,2013-10-08 08:53:00
1:35 AM,42.8,39.2,87,29.20,10.0,West,23.0,-,0.01,,Mostly Cloudy,260,2013-10-08 09:35:00
1:53 AM,43.0,39.0,86,29.18,10.0,West,20.7,32.2,0.01,,Scattered Clouds,270,2013-10-08 09:53:00
2:26 AM,42.8,39.2,87,29.21,10.0,West,23.0,29.9,N/A,,Mostly Cloudy,270,2013-10-08 10:26:00
2:53 AM,43.0,39.0,86,29.19,10.0,West,23.0,29.9,N/A,,Mostly Cloudy,270,2013-10-08 10:53:00
3:05 AM,42.8,39.2,87,29.24,10.0,West,18.4,28.8,N/A,,Scattered Clouds,270,2013-10-08 11:05:00
3:35 AM,42.8,39.2,87,29.24,10.0,West,20.7,-,N/A,,Mostly Cloudy,270,2013-10-08 11:35:00
3:53 AM,43.0,39.0,86,29.22,10.0,West,15.0,24.2,N/A,,Overcast,270,2013-10-08 11:53:00
4:01 AM,42.8,39.2,87,29.25,10.0,West,19.6,24.2,N/A,,Overcast,280,2013-10-08 12:01:00
4:28 AM,42.8,37.4,81,29.27,10.0,NW,16.1,23.0,0.01,,Overcast,310,2013-10-08 12:28:00
4:36 AM,42.8,37.4,81,29.28,10.0,WNW,13.8,24.2,0.01,,Mostly Cloudy,300,2013-10-08 12:36:00
4:53 AM,41.0,37.0,86,29.26,10.0,WNW,17.3,25.3,0.01,,Partly Cloudy,300,2013-10-08 12:53:00
5:40 AM,42.8,37.4,81,29.32,10.0,WNW,23.0,33.4,0.01,Rain,Light Rain,300,2013-10-08 13:40:00
5:50 AM,41.0,37.4,87,29.33,10.0,WNW,16.1,32.2,0.01,Rain,Light Rain,300,2013-10-08 13:50:00
5:53 AM,41.0,37.0,86,29.30,10.0,WNW,18.4,25.3,0.01,Rain,Light Rain,300,2013-10-08 13:53:00
6:53 AM,42.1,37.0,82,29.33,10.0,WNW,19.6,28.8,0.00,,Mostly Cloudy,300,2013-10-08 14:53:00
8:53 AM,42.1,36.0,79,29.41,10.0,WNW,23.0,34.5,N/A,,Partly Cloudy,300,2013-10-08 16:53:00
9:53 AM,41.0,34.0,76,29.45,10.0,WNW,19.6,29.9,N/A,,Scattered Clouds,290,2013-10-08 17:53:00
10:53 AM,43.0,37.0,80,29.49,10.0,WNW,23.0,29.9,N/A,,Mostly Cloudy,290,2013-10-08 18:53:00
11:53 AM,44.1,37.9,79,29.52,10.0,WNW,24.2,33.4,N/A,,Scattered Clouds,290,2013-10-08 19:53:00
12:53 PM,45.0,37.9,76,29.57,10.0,WNW,19.6,28.8,N/A,,Partly Cloudy,290,2013-10-08 20:53:00
1:53 PM,45.0,37.0,74,29.61,10.0,WNW,23.0,31.1,0.00,,Partly Cloudy,290,2013-10-08 21:53:00
2:26 PM,42.8,37.4,81,29.66,6.0,WNW,21.9,32.2,0.01,Rain,Light Rain,290,2013-10-08 22:26:00
2:38 PM,44.6,39.2,81,29.67,10.0,WNW,18.4,29.9,0.01,,Scattered Clouds,290,2013-10-08 22:38:00
2:53 PM,43.0,37.9,82,29.64,8.0,West,19.6,34.5,0.01,,Mostly Cloudy,280,2013-10-08 22:53:00
3:53 PM,45.0,37.9,76,29.66,10.0,West,18.4,33.4,N/A,,Partly Cloudy,280,2013-10-08 23:53:00
4:20 PM,46.4,39.2,76,29.70,10.0,West,23.0,27.6,N/A,,Mostly Cloudy,270,2013-10-09 00:20:00
4:28 PM,46.4,39.2,76,29.70,10.0,West,19.6,29.9,N/A,,Scattered Clouds,270,2013-10-09 00:28:00
4:53 PM,45.0,39.0,80,29.68,10.0,West,19.6,27.6,N/A,,Scattered Clouds,270,2013-10-09 00:53:00
5:53 PM,45.0,37.9,76,29.69,10.0,West,21.9,27.6,N/A,,Scattered Clouds,270,2013-10-09 01:53:00
6:53 PM,43.0,37.9,82,29.72,9.0,West,17.3,25.3,0.00,Rain,Light Rain,260,2013-10-09 02:53:00
7:53 PM,44.1,39.0,82,29.73,9.0,WSW,16.1,-,0.00,,Scattered Clouds,250,2013-10-09 03:53:00
8:53 PM,44.1,39.0,82,29.74,10.0,WSW,16.1,-,N/A,,Overcast,240,2013-10-09 04:53:00
9:53 PM,44.1,41.0,89,29.73,10.0,SW,20.7,25.3,N/A,,Overcast,230,2013-10-09 05:53:00
10:28 PM,44.6,42.8,93,29.77,10.0,SW,17.3,-,N/A,,Overcast,220,2013-10-09 06:28:00
10:51 PM,44.6,42.8,93,29.77,6.0,SW,20.7,-,N/A,,Overcast,220,2013-10-09 06:51:00
10:53 PM,44.1,42.1,93,29.73,6.0,SW,21.9,-,N/A,,Overcast,220,2013-10-09 06:53:00
11:08 PM,44.6,42.8,93,29.77,8.0,SW,19.6,-,N/A,,Overcast,230,2013-10-09 07:08:00
11:15 PM,44.6,42.8,93,29.76,8.0,SW,20.7,-,N/A,,Overcast,220,2013-10-09 07:15:00
11:53 PM,45.0,42.1,90,29.73,8.0,SW,24.2,31.1,N/A,,Overcast,220,2013-10-09 07:53:00